Torna al catalogo

DIAMANT B-P4 DEB

AttivoLEO
NORAD 7655·DEBRIS·🇫🇷 France

Lanciato Feb 6, 1975 da Guiana Space Centre

Loading…

Prossimi Passaggi (prossime 24 ore)

TLE

AggiornatoSource: Space-Track

Epoca: Sep 13, 2026, 15:07 UTC

1 07655U 75010D   26256.63000497 -.00000020  00000-0  82893-4 0  9993
2 07655  49.8003 228.5791 0178161 162.2854 198.4363 13.94916062620648

Traccia DIAMANT B-P4 DEB in tempo reale con AllMySat

Download on the App Store